Location: Unspecified
(52.1971°N, 0.0000°E)
Time: 20:31:05
(UTC+00:00)

YUBILEINY - Pass Details

Date: 23 December 2019
Orbit: 1478 x 1509 km, 82.5° (Epoch: 26 January)

Event Time Altitude Azimuth Distance (km) Brightness Sun altitude
Exits shadow 23:50:59 11° 340° (NNW) 3,545 ? -61.2°
Drops below altitude 10° 23:52:04 10° 347° (NNW) 3,630 ? -61.2°
Sets 23:57:57 0° 18° (NNE) 4,613 ? -61.2°
